Weather History for Tyler, TX

Change the Weather History Date:

Friday, March 30, 2012

  Actual Average Record
Temperature  
Mean Temperature 73 °F 60 °F  
Max Temperature 80 °F 70 °F 91 °F (1946)
Min Temperature 65 °F 50 °F 30 °F (2003)
Degree Days  
Heating Degree Days 0 6  
Month to date heating degree days 79 266  
Since 1 July heating degree days 1644 2158  
Cooling Degree Days 8 1  
Month to date cooling degree days 96 18  
Year to date cooling degree days 118 30  
Growing Degree Days 22 (Base 50)    
Moisture  
Dew Point 65 °F    
Average Humidity 78    
Maximum Humidity 93    
Minimum Humidity 62    
Precipitation  
Precipitation 0.01 in 0.11 in 2.64 in (1989)
Month to date precipitation 6.38 4.01  
Year to date precipitation 12.53 10.88  
Snow  
Snow 0.00 in - - ()
Month to date snowfall 0.0  
Since 1 July snowfall 0.0  
Snow Depth 0.00 in    
Sea Level Pressure  
Sea Level Pressure 29.86 in    
Wind  
Wind Speed 6 mph (SSE)    
Max Wind Speed 14 mph    
Max Gust Speed 24 mph    
Visibility 7 miles    
Events      
T = Trace of Precipitation, MM = Missing Value Source: NWS Daily Summary

Daily Weather History Graph

Daily Weather History Graph

Search for Another Location

Airport:

Trip Planner

Search our weather history database for the weather conditions in past years. The results will help you decide how hot, cold, wet, or windy it might be!

Date:

Astronomy

Mar. 30, 2012 Rise Set
Actual Time 7:11 AM CDT 7:40 PM CDT
Civil Twilight 6:47 AM CDT 8:05 PM CDT
Nautical Twilight 6:18 AM CDT 8:34 PM CDT
Astronomical Twilight 5:48 AM CDT 9:03 PM CDT
Moon 12:33 PM CDT (3/30) 2:02 AM CDT (3/30)
Length of Visible Light 13h 18m
Length of Day
12h 28m
Waxing Crescent, 49% of the Moon is Illuminated
Mar 30
Waxing Crescent
Mar 30
First Quarter
Apr 6
Full
Apr 13
Last Quarter
Apr 21
New

Hourly Weather History & Observations

Time (CDT) Temp. Heat Index Dew Point Humidity Pressure Visibility Wind Dir Wind Speed Gust Speed Precip Events Conditions
12:18 AM 64.4 °F - 64.4 °F 100% 29.89 in 7.0 mi SSE 4.6 mph - N/A   Overcast
12:53 AM 66.0 °F - 64.0 °F 93% 29.87 in 8.0 mi South 4.6 mph - N/A   Overcast
1:53 AM 66.0 °F - 64.0 °F 93% 29.87 in 7.0 mi SSE 5.8 mph - N/A   Overcast
2:00 AM 66.2 °F - 62.6 °F 88% 29.88 in 8.0 mi SSE 6.9 mph - N/A   Overcast
2:50 AM 66.2 °F - 64.4 °F 94% 29.88 in 7.0 mi South 5.8 mph - N/A   Overcast
2:53 AM 66.0 °F - 64.0 °F 93% 29.86 in 7.0 mi South 5.8 mph - N/A   Overcast
3:53 AM 66.0 °F - 63.0 °F 90% 29.84 in 7.0 mi South 5.8 mph - 0.01 in   Overcast
4:05 AM 66.2 °F - 64.4 °F 94% 29.85 in 7.0 mi South 5.8 mph - N/A   Overcast
4:53 AM 66.0 °F - 64.0 °F 93% 29.84 in 7.0 mi Calm Calm - N/A   Overcast
5:44 AM 66.2 °F - 64.4 °F 94% 29.87 in 3.0 mi Calm Calm - N/A   Overcast
5:53 AM 66.0 °F - 64.0 °F 93% 29.86 in 3.0 mi ESE 3.5 mph - N/A   Overcast
6:07 AM 66.2 °F - 64.4 °F 94% 29.87 in 2.5 mi East 3.5 mph - N/A   Overcast
6:34 AM 66.2 °F - 64.4 °F 94% 29.87 in 3.0 mi Calm Calm - 0.00 in   Overcast
6:53 AM 66.2 °F - 64.4 °F 94% 29.87 in 3.0 mi ESE 3.5 mph - N/A   Overcast
7:26 AM 66.2 °F - 64.4 °F 94% 29.88 in 2.0 mi SE 3.5 mph - N/A   Overcast
7:53 AM 66.0 °F - 64.9 °F 96% 29.88 in 2.5 mi SSE 4.6 mph - N/A   Overcast
8:01 AM 66.2 °F - 64.4 °F 94% 29.89 in 3.0 mi SSE 3.5 mph - N/A   Overcast
8:31 AM 66.2 °F - 64.4 °F 94% 29.90 in 3.0 mi SSE 4.6 mph - N/A   Overcast
8:53 AM 66.9 °F - 64.9 °F 93% 29.89 in 3.0 mi SSE 5.8 mph - N/A   Overcast
9:51 AM 68.0 °F - 66.2 °F 94% 29.91 in 5.0 mi South 6.9 mph - N/A   Overcast
9:53 AM 68.0 °F - 66.0 °F 93% 29.89 in 5.0 mi SSE 6.9 mph - N/A   Overcast
10:53 AM 70.0 °F - 66.0 °F 87% 29.89 in 8.0 mi South 5.8 mph - N/A   Overcast
11:07 AM 71.6 °F - 66.2 °F 83% 29.90 in 8.0 mi South 4.6 mph - N/A   Overcast
11:27 AM 71.6 °F - 66.2 °F 83% 29.90 in 10.0 mi SSE 5.8 mph - N/A   Mostly Cloudy
11:53 AM 73.0 °F - 66.0 °F 79% 29.88 in 10.0 mi SSW 6.9 mph - N/A   Overcast
12:45 PM 75.2 °F - 66.2 °F 73% 29.88 in 10.0 mi SSE 6.9 mph - N/A   Mostly Cloudy
12:53 PM 75.2 °F - 66.2 °F 73% 29.88 in 10.0 mi South 6.9 mph - N/A   Scattered Clouds
1:53 PM 77.0 °F - 66.0 °F 69% 29.84 in 10.0 mi Variable 3.5 mph - N/A   Mostly Cloudy
2:53 PM 78.1 °F - 66.0 °F 66% 29.82 in 10.0 mi SSW 5.8 mph - N/A   Scattered Clouds
3:53 PM 79.0 °F - 64.9 °F 62% 29.79 in 10.0 mi South 11.5 mph - N/A   Partly Cloudy
4:53 PM 80.1 °F 82.1 °F 66.0 °F 62% 29.79 in 10.0 mi SW 10.4 mph - N/A   Scattered Clouds
5:53 PM 79.0 °F - 64.0 °F 60% 29.81 in 10.0 mi SSW 8.1 mph - N/A   Partly Cloudy
6:53 PM 77.0 °F - 64.9 °F 66% 29.80 in 10.0 mi SSW 6.9 mph - N/A   Clear
7:53 PM 73.0 °F - 64.9 °F 76% 29.80 in 10.0 mi South 5.8 mph - N/A   Clear
8:53 PM 70.0 °F - 64.0 °F 81% 29.81 in 10.0 mi South 4.6 mph - N/A   Clear
9:53 PM 68.0 °F - 64.0 °F 87% 29.82 in 10.0 mi SE 3.5 mph - N/A   Clear
10:53 PM 66.9 °F - 63.0 °F 87% 29.83 in 10.0 mi South 3.5 mph - N/A   Clear
11:53 PM 64.9 °F - 63.0 °F 93% 29.82 in 9.0 mi South 4.6 mph - N/A   Clear